This is the latest recevied weather packets stored in our database for station/object KD4WXI. If no packets are shown the sender has not sent any weather packets the latest 1 day(s).
| Time | Temp. | Humidity | Pressure | Rain* | Wind** | Luminosity | Snow |
|---|---|---|---|---|---|---|---|
| 1778071337 | 17.78° C | 76% | 1014.5 hPa | 0 mm | - | 80 W/m² | - |
| 1778071034 | 17.78° C | 76% | 1014.1 hPa | 0 mm | - | 95 W/m² | - |
| 1778070733 | 17.78° C | 76% | 1014.2 hPa | 0 mm | - | 82 W/m² | - |
| 1778070429 | 17.78° C | 76% | 1014.7 hPa | 0 mm | - | 87 W/m² | - |
| 1778068614 | 17.22° C | 76% | 1014.9 hPa | 0 mm | - | 37 W/m² | - |
| 1778066496 | 16.67° C | 77% | 1014.6 hPa | 0 mm | - | 20 W/m² | - |
| 1778065891 | 16.67° C | 79% | 1014.2 hPa | 0 mm | - | 19 W/m² | - |
| 1778065588 | 16.67° C | 80% | 1014.5 hPa | 0 mm | - | 14 W/m² | - |
| 1778064982 | 16.67° C | 78% | 1014.2 hPa | 0 mm | - | 21 W/m² | - |
| 1778064377 | 16.67° C | 78% | 1013.8 hPa | 0 mm | - | 11 W/m² | - |
| 1778064074 | 16.67° C | 78% | 1013.8 hPa | 0 mm | - | 9 W/m² | - |
| 1778062257 | 16.67° C | 78% | 1013.4 hPa | 0 mm | - | 0 W/m² | - |
| 1778061653 | 16.11° C | 78% | 1013.5 hPa | 0 mm | - | 0 W/m² | - |
| 1778059838 | 16.67° C | 76% | 1013.5 hPa | 0 mm | - | 0 W/m² | - |
| 1778059536 | 16.67° C | 76% | 1013.4 hPa | 0 mm | - | 0 W/m² | - |
| 1778058931 | 16.67° C | 76% | 1013.6 hPa | 0 mm | - | 0 W/m² | - |
| 1778058628 | 16.67° C | 76% | 1013.4 hPa | 0 mm | - | 0 W/m² | - |
| 1778058326 | 16.67° C | 76% | 1013.4 hPa | 0 mm | - | 0 W/m² | - |
| 1778057719 | 16.67° C | 77% | 1013.7 hPa | 0 mm | - | 0 W/m² | - |
| 1778057112 | 16.67° C | 76% | 1014.1 hPa | 0 mm | - | 0 W/m² | - |
| 1778056808 | 16.67° C | 76% | 1014 hPa | 0 mm | - | 0 W/m² | - |
| 1778056506 | 17.22° C | 76% | 1014.2 hPa | 0 mm | - | 0 W/m² | - |
| 1778055595 | 17.22° C | 76% | 1014.3 hPa | 0 mm | - | 0 W/m² | - |
| 1778055294 | 17.22° C | 75% | 1014.2 hPa | 0 mm | - | 0 W/m² | - |
| 1778054991 | 17.22° C | 75% | 1014.2 hPa | 0 mm | - | 0 W/m² | - |
* Rain latest hour (hover to see other rain measurements)
** Current wind speed in m/s (hover to see current wind gust speed)